Weather History for Moorhead, MN

Change the Weather History Date:

Saturday, April 27, 2013

  Actual Average (KFAR) Record (KFAR)
Temperature  
Mean Temperature 56 °F 50 °F  
Max Temperature 71 °F 63 °F 92 °F (1910)
Min Temperature 41 °F 38 °F 12 °F (1909)
Degree Days  
Heating Degree Days 9 15  
Month to date heating degree days 583  
Since 1 July heating degree days 8413  
Cooling Degree Days 0 0  
Month to date cooling degree days 0  
Year to date cooling degree days 0  
Growing Degree Days 6 (Base 50)    
Moisture  
Dew Point 45 °F    
Average Humidity 67    
Maximum Humidity 93    
Minimum Humidity 41    
Precipitation  
Precipitation 0.00 in 0.06 in 1.79 in (1942)
Month to date precipitation 1.17  
Year to date precipitation 3.78  
Snow  
Snow 0.00 in 0.00 in 2.00 in (1966)
Month to date snowfall 2.8  
Since 1 July snowfall 49.9  
Snow Depth -    
Sea Level Pressure  
Sea Level Pressure 29.91 in    
Wind  
Wind Speed 10 mph (South)    
Max Wind Speed 18 mph    
Max Gust Speed 29 mph    
Visibility 10 miles    
Events      
T = Trace of Precipitation, MM = Missing Value Source: NWS Daily Summary

Daily Weather History Graph

Daily Weather History Graph

Search for Another Location

Airport:

Trip Planner

Search our weather history database for the weather conditions in past years. The results will help you decide how hot, cold, wet, or windy it might be!

Date:

Astronomy

Apr. 27, 2013 Rise Set
Actual Time 6:17 AM CDT 8:31 PM CDT
Civil Twilight 5:44 AM CDT 9:05 PM CDT
Nautical Twilight 5:03 AM CDT 9:46 PM CDT
Astronomical Twilight 4:16 AM CDT 10:33 PM CDT
Moon 11:09 PM CDT (4/27) 7:31 AM CDT (4/27)
Length of Visible Light 15h 20m
Length of Day
14h 14m
Waning Gibbous, 95% of the Moon is Illuminated
Apr 27
Waning Gibbous
May 2
Last Quarter
May 9
New
May 17
First Quarter
May 24
Full

Hourly Weather History & Observations

Time (CDT) Temp. Windchill Dew Point Humidity Pressure Visibility Wind Dir Wind Speed Gust Speed Precip Events Conditions
12:15 AM 48.2 °F - 44.6 °F 87% 30.07 in 10.0 mi South 10.4 mph - N/A   Clear
12:35 AM 48.2 °F - 44.6 °F 87% 30.07 in 10.0 mi South 10.4 mph - N/A   Clear
12:55 AM 48.2 °F - 44.6 °F 87% 30.07 in 10.0 mi South 9.2 mph - N/A   Clear
1:15 AM 48.2 °F - 44.6 °F 87% 30.06 in 10.0 mi South 10.4 mph - N/A   Clear
1:34 AM 46.4 °F 41.5 °F 44.6 °F 93% 30.06 in 10.0 mi South 10.4 mph - N/A   Clear
1:55 AM 46.4 °F 41.9 °F 42.8 °F 87% 30.06 in 10.0 mi South 9.2 mph - N/A   Clear
2:15 AM 46.4 °F 43.5 °F 42.8 °F 87% 30.06 in 10.0 mi South 5.8 mph - N/A   Clear
2:34 AM 46.4 °F 42.4 °F 41.0 °F 81% 30.06 in 10.0 mi South 8.1 mph - N/A   Clear
2:55 AM 44.6 °F 39.7 °F 39.2 °F 81% 30.05 in 10.0 mi South 9.2 mph - N/A   Clear
3:15 AM 44.6 °F 40.2 °F 39.2 °F 81% 30.05 in 10.0 mi South 8.1 mph - N/A   Clear
3:34 AM 42.8 °F 37.5 °F 39.2 °F 87% 30.04 in 10.0 mi South 9.2 mph - N/A   Clear
3:55 AM 42.8 °F 37.5 °F 39.2 °F 87% 30.04 in 10.0 mi South 9.2 mph - N/A   Clear
4:15 AM 42.8 °F 38.0 °F 39.2 °F 87% 30.04 in 10.0 mi South 8.1 mph - N/A   Clear
4:34 AM 42.8 °F 38.0 °F 39.2 °F 87% 30.04 in 10.0 mi South 8.1 mph - N/A   Clear
4:55 AM 42.8 °F 38.0 °F 37.4 °F 81% 30.03 in 10.0 mi SSE 8.1 mph - N/A   Clear
5:15 AM 41.0 °F 35.2 °F 37.4 °F 87% 30.02 in 10.0 mi South 9.2 mph - N/A   Clear
5:35 AM 42.8 °F 38.0 °F 37.4 °F 81% 30.02 in 10.0 mi South 8.1 mph - N/A   Clear
5:55 AM 42.8 °F 38.0 °F 37.4 °F 81% 30.02 in 10.0 mi South 8.1 mph - N/A   Clear
6:14 AM 42.8 °F 37.5 °F 37.4 °F 81% 30.01 in 10.0 mi South 9.2 mph - N/A   Clear
6:35 AM 42.8 °F 37.5 °F 37.4 °F 81% 30.01 in 10.0 mi South 9.2 mph - N/A   Clear
6:55 AM 42.8 °F 37.0 °F 37.4 °F 81% 30.00 in 10.0 mi South 10.4 mph - N/A   Clear
7:14 AM 42.8 °F 37.5 °F 37.4 °F 81% 30.01 in 10.0 mi South 9.2 mph - N/A   Clear
7:35 AM 42.8 °F 37.0 °F 37.4 °F 81% 30.01 in 10.0 mi South 10.4 mph - N/A   Clear
7:55 AM 44.6 °F 40.2 °F 39.2 °F 81% 30.01 in 10.0 mi South 8.1 mph - N/A   Clear
8:14 AM 46.4 °F 42.4 °F 39.2 °F 76% 30.00 in 10.0 mi South 8.1 mph - N/A   Clear
8:35 AM 46.4 °F 42.4 °F 39.2 °F 76% 30.00 in 10.0 mi South 8.1 mph - N/A   Clear
8:55 AM 48.2 °F - 39.2 °F 71% 30.00 in 10.0 mi SSW 10.4 mph - N/A   Clear
9:14 AM 48.2 °F - 41.0 °F 76% 30.00 in 10.0 mi SSW 10.4 mph - N/A   Clear
9:35 AM 51.8 °F - 41.0 °F 67% 29.99 in 10.0 mi SSW 8.1 mph - N/A   Clear
9:55 AM 53.6 °F - 41.0 °F 62% 29.98 in 10.0 mi SSW 9.2 mph - N/A   Clear
10:14 AM 55.4 °F - 39.2 °F 54% 29.97 in 10.0 mi South 13.8 mph 17.3 mph N/A   Clear
10:35 AM 57.2 °F - 42.8 °F 59% 29.97 in 10.0 mi South 10.4 mph - N/A   Clear
10:55 AM 57.2 °F - 42.8 °F 59% 29.96 in 10.0 mi SSW 15.0 mph 18.4 mph N/A   Clear
11:14 AM 59.0 °F - 44.6 °F 59% 29.95 in 10.0 mi South 10.4 mph 16.1 mph N/A   Clear
11:35 AM 60.8 °F - 44.6 °F 55% 29.95 in 10.0 mi SSW 13.8 mph 20.7 mph N/A   Clear
11:55 AM 60.8 °F - 42.8 °F 52% 29.94 in 10.0 mi South 13.8 mph 20.7 mph N/A   Clear
12:14 PM 62.6 °F - 44.6 °F 52% 29.93 in 10.0 mi South 13.8 mph 18.4 mph N/A   Clear
12:35 PM 62.6 °F - 44.6 °F 52% 29.92 in 10.0 mi South 12.7 mph 23.0 mph N/A   Clear
12:54 PM 62.6 °F - 44.6 °F 52% 29.91 in 10.0 mi South 12.7 mph 21.9 mph N/A   Clear
1:15 PM 64.4 °F - 46.4 °F 52% 29.90 in 10.0 mi South 11.5 mph 21.9 mph N/A   Clear
1:35 PM 66.2 °F - 48.2 °F 52% 29.89 in 10.0 mi South 15.0 mph 24.2 mph N/A   Clear
1:54 PM 66.2 °F - 48.2 °F 52% 29.88 in 10.0 mi South 18.4 mph 24.2 mph N/A   Clear
2:15 PM 68.0 °F - 48.2 °F 49% 29.87 in 10.0 mi South 16.1 mph 28.8 mph N/A   Clear
2:35 PM 69.8 °F - 48.2 °F 46% 29.87 in 10.0 mi SSW 18.4 mph 26.5 mph N/A   Clear
2:54 PM 69.8 °F - 48.2 °F 46% 29.86 in 10.0 mi South 15.0 mph 24.2 mph N/A   Clear
3:15 PM 69.8 °F - 46.4 °F 43% 29.85 in 10.0 mi South 16.1 mph 23.0 mph N/A   Clear
3:35 PM 71.6 °F - 46.4 °F 41% 29.85 in 10.0 mi South 15.0 mph 24.2 mph N/A   Clear
3:54 PM 71.6 °F - 46.4 °F 41% 29.84 in 10.0 mi South 13.8 mph 23.0 mph N/A   Clear
4:15 PM 71.6 °F - 48.2 °F 43% 29.83 in 10.0 mi South 16.1 mph 24.2 mph N/A   Clear
4:34 PM 71.6 °F - 50.0 °F 46% 29.82 in 10.0 mi South 12.7 mph 20.7 mph N/A   Clear
4:55 PM 71.6 °F - 46.4 °F 41% 29.81 in 10.0 mi South 13.8 mph 23.0 mph N/A   Clear
5:15 PM 71.6 °F - 51.8 °F 50% 29.80 in 10.0 mi South 11.5 mph 20.7 mph N/A   Clear
5:34 PM 69.8 °F - 51.8 °F 53% 29.79 in 10.0 mi South 15.0 mph - N/A   Clear
5:55 PM 69.8 °F - 51.8 °F 53% 29.78 in 10.0 mi South 13.8 mph 20.7 mph N/A   Clear
6:15 PM 69.8 °F - 51.8 °F 53% 29.78 in 10.0 mi South 11.5 mph - N/A   Clear
6:34 PM 68.0 °F - 53.6 °F 60% 29.77 in 10.0 mi South 11.5 mph - N/A   Clear
6:55 PM 68.0 °F - 53.6 °F 60% 29.77 in 10.0 mi South 11.5 mph 17.3 mph N/A   Clear
7:15 PM 66.2 °F - 51.8 °F 60% 29.76 in 10.0 mi South 11.5 mph - N/A   Clear
7:34 PM 66.2 °F - 51.8 °F 60% 29.77 in 10.0 mi South 6.9 mph - N/A   Clear
7:55 PM 64.4 °F - 53.6 °F 68% 29.77 in 10.0 mi South 9.2 mph - N/A   Clear
8:14 PM 62.6 °F - 55.4 °F 77% 29.76 in 10.0 mi South 8.1 mph - N/A   Clear
8:35 PM 62.6 °F - 53.6 °F 72% 29.76 in 10.0 mi South 8.1 mph - N/A   Clear
8:55 PM 62.6 °F - 53.6 °F 72% 29.78 in 10.0 mi NNW 18.4 mph 23.0 mph N/A   Mostly Cloudy
9:14 PM 66.2 °F - 46.4 °F 49% 29.79 in 10.0 mi WSW 8.1 mph 16.1 mph N/A   Mostly Cloudy
9:35 PM 66.2 °F - 44.6 °F 46% 29.78 in 10.0 mi South 8.1 mph - N/A   Scattered Clouds
9:55 PM 62.6 °F - 48.2 °F 59% 29.78 in 10.0 mi SSE 4.6 mph - N/A   Clear
10:14 PM 60.8 °F - 48.2 °F 63% 29.77 in 10.0 mi SSE 4.6 mph - N/A   Clear
10:35 PM 60.8 °F - 48.2 °F 63% 29.77 in 10.0 mi SSE 8.1 mph - N/A   Clear
10:55 PM 57.2 °F - 48.2 °F 72% 29.77 in 10.0 mi SSE 5.8 mph - N/A   Clear
11:14 PM 57.2 °F - 48.2 °F 72% 29.76 in 10.0 mi SSE 6.9 mph - N/A   Clear
11:35 PM 55.4 °F - 48.2 °F 77% 29.75 in 10.0 mi SSE 5.8 mph - N/A   Clear
11:55 PM 53.6 °F - 48.2 °F 82% 29.75 in 10.0 mi SSE 6.9 mph - N/A   Clear